Beijing-3C 04

operational
NORAD ID: 59808 Int'l Des: 2024-094 Owner: 21AT Country: CN
LEOCIRCULARRETROGRADESSO

Beijing-3C 04について

説明を読み込み中...

リアルタイム位置

3D地球を読み込み中...

次回通過

高度履歴

Altitude vs Time

uPlot chart will show altitude changes over time

軌道要素

1 59808U 24094D 26063.21225387 .00012486 00000-0 64696-3 0 9991
2 59808 97.3939 136.4897 0005675 239.8836 120.1835 15.16309658 99240
Epoch: Mar 4, 2026 • Age: 24 hours

現在のステータス

高度 541.2 km
速度 7.59 km/s
衛星直下点 -78.46°S, 120.35°E
打ち上げ日 May 20, 2024
運用期間 1.7 years
タイプ other

技術仕様

分類 Payload
質量 1000.00 kg
乾燥質量 1000.00 kg
総質量 1000.00 kg
長さ 1.00 m
直径 1.00 m
スパン 5.00 m
形状 Hex cyl + 3 pan
製造者 DFHZ
バスタイプ BJ3C
フェーズステータス In Orbit
所有者/国 21AT/CN

大規模コンステレーション

Loading constellations...